TimeEDT,TemperatureF,Dew PointF,Humidity,Sea Level PressureIn,VisibilityMPH,Wind Direction,Wind SpeedMPH,Gust SpeedMPH,PrecipitationIn,Events,Conditions,WindDirDegrees,DateUTC
12:52 AM,66.0,66.0,100,29.63,7.0,SSW,5.8,-,N/A,,Clear,210,2013-06-28 04:52:00
1:52 AM,64.9,64.9,100,29.63,10.0,SW,3.5,-,N/A,,Clear,220,2013-06-28 05:52:00
2:52 AM,66.9,64.9,93,29.63,10.0,WSW,4.6,-,N/A,,Clear,240,2013-06-28 06:52:00
3:52 AM,69.1,66.0,90,29.62,10.0,WSW,5.8,-,N/A,,Scattered Clouds,240,2013-06-28 07:52:00
4:10 AM,68.0,66.2,94,29.64,10.0,WSW,4.6,-,N/A,,Mostly Cloudy,250,2013-06-28 08:10:00
4:26 AM,68.0,66.2,94,29.64,10.0,WSW,4.6,-,N/A,,Mostly Cloudy,250,2013-06-28 08:26:00
4:40 AM,68.0,66.2,94,29.64,10.0,WSW,4.6,-,N/A,,Mostly Cloudy,240,2013-06-28 08:40:00
4:52 AM,68.0,66.0,93,29.61,10.0,WSW,4.6,-,N/A,,Overcast,250,2013-06-28 08:52:00
5:24 AM,69.8,66.2,88,29.64,9.0,North,9.2,-,N/A,,Overcast,350,2013-06-28 09:24:00
5:36 AM,66.2,66.2,100,29.64,5.0,NNW,6.9,-,N/A,,Mostly Cloudy,340,2013-06-28 09:36:00
5:52 AM,66.9,66.0,97,29.60,4.0,Calm,Calm,-,N/A,,Mostly Cloudy,0,2013-06-28 09:52:00
6:17 AM,66.2,66.2,100,29.64,2.0,Calm,Calm,-,N/A,,Overcast,0,2013-06-28 10:17:00
6:52 AM,66.9,66.9,100,29.62,3.0,WNW,3.5,-,N/A,,Overcast,290,2013-06-28 10:52:00
7:21 AM,68.0,66.2,94,29.63,4.0,WNW,3.5,-,N/A,,Overcast,300,2013-06-28 11:21:00
7:28 AM,68.0,66.2,94,29.63,4.0,WSW,3.5,-,N/A,,Overcast,250,2013-06-28 11:28:00
7:52 AM,68.0,66.9,96,29.60,4.0,West,5.8,-,N/A,,Overcast,270,2013-06-28 11:52:00
8:52 AM,68.0,66.9,96,29.61,4.0,West,4.6,-,N/A,,Overcast,280,2013-06-28 12:52:00
9:52 AM,71.1,66.9,87,29.61,5.0,WNW,6.9,-,N/A,,Overcast,290,2013-06-28 13:52:00
10:18 AM,71.6,68.0,88,29.63,5.0,West,6.9,-,N/A,,Overcast,260,2013-06-28 14:18:00
10:32 AM,73.4,66.2,78,29.62,7.0,West,9.2,-,N/A,,Mostly Cloudy,260,2013-06-28 14:32:00
10:52 AM,73.0,66.9,81,29.60,9.0,West,9.2,-,N/A,,Mostly Cloudy,280,2013-06-28 14:52:00
11:00 AM,73.4,66.2,78,29.62,10.0,West,6.9,-,N/A,,Mostly Cloudy,270,2013-06-28 15:00:00
11:18 AM,75.2,64.4,69,29.62,10.0,West,11.5,17.3,N/A,,Scattered Clouds,280,2013-06-28 15:18:00
11:52 AM,77.0,66.0,69,29.59,10.0,West,9.2,16.1,N/A,,Scattered Clouds,280,2013-06-28 15:52:00
12:52 PM,77.0,64.9,66,29.57,10.0,West,9.2,-,N/A,,Partly Cloudy,260,2013-06-28 16:52:00
1:52 PM,75.0,64.0,69,29.57,10.0,West,6.9,-,N/A,Thunderstorm,Partly Cloudy,280,2013-06-28 17:52:00
2:52 PM,63.0,57.9,84,29.59,5.0,SW,8.1,-,0.10,Rain,Light Rain,220,2013-06-28 18:52:00
3:10 PM,64.4,59.0,83,29.60,10.0,SW,5.8,-,0.00,Thunderstorm,Mostly Cloudy,230,2013-06-28 19:10:00
3:25 PM,66.2,60.8,83,29.58,10.0,SW,4.6,-,0.00,Rain,Light Rain,230,2013-06-28 19:25:00
3:52 PM,73.0,63.0,71,29.54,10.0,WSW,9.2,-,0.00,,Partly Cloudy,250,2013-06-28 19:52:00
4:39 PM,68.0,59.0,73,29.59,10.0,North,10.4,19.6,N/A,,Mostly Cloudy,10,2013-06-28 20:39:00
4:52 PM,68.0,60.1,76,29.57,10.0,North,8.1,-,N/A,,Scattered Clouds,10,2013-06-28 20:52:00
5:15 PM,68.0,62.6,83,29.59,10.0,North,5.8,-,0.00,Thunderstorm,Mostly Cloudy,350,2013-06-28 21:15:00
5:43 PM,69.8,60.8,73,29.59,10.0,WNW,3.5,-,0.00,,Mostly Cloudy,300,2013-06-28 21:43:00
5:52 PM,68.0,61.0,78,29.57,9.0,Calm,Calm,-,0.00,Rain,Light Rain,0,2013-06-28 21:52:00
6:01 PM,69.8,60.8,73,29.58,10.0,NNW,4.6,-,0.01,Thunderstorm,Scattered Clouds,330,2013-06-28 22:01:00
6:23 PM,68.0,60.8,78,29.60,10.0,West,4.6,-,0.01,Thunderstorm,Clear,260,2013-06-28 22:23:00
6:44 PM,66.2,62.6,88,29.61,4.0,SW,6.9,-,0.03,Rain,Rain,230,2013-06-28 22:44:00
6:52 PM,66.0,63.0,90,29.59,4.0,SSW,6.9,-,0.05,Rain,Rain,210,2013-06-28 22:52:00
7:52 PM,64.0,62.1,93,29.60,7.0,West,6.9,-,0.03,Rain,Light Rain,270,2013-06-28 23:52:00
8:52 PM,63.0,62.1,97,29.59,10.0,NW,4.6,-,0.04,,Scattered Clouds,310,2013-06-29 00:52:00
9:52 PM,63.0,62.1,97,29.60,10.0,West,3.5,-,N/A,,Clear,280,2013-06-29 01:52:00
10:52 PM,61.0,61.0,100,29.59,10.0,SW,4.6,-,N/A,,Clear,220,2013-06-29 02:52:00
11:52 PM,62.1,62.1,100,29.58,10.0,SW,4.6,-,N/A,,Clear,230,2013-06-29 03:52:00